This demonstration page uses our WeatherBlox Daily Observations layout. Learn more.

Left ArrowRight Arrow

39.92423, -83.80882

Hourly Observations for July 21, 2020

Temp ( °F °C ) Dew Point ( °F °C ) Humidity (%) Winds ( mph kmh ) Pressure ( in mb ) Visibility ( mi km ) Precip ( " mm )
12:56 am 00:56 Mostly Cloudy 75 23.9 66 18.9 74 74 N N/A 30.03 1017 10 16 N/A
1:56 am 01:56 Mostly Cloudy 72 22.2 69 20.6 91 91 ESE 3 6 30.01 1016 10 16 N/A
2:56 am 02:56 Mostly Cloudy 72 22.2 68 20 87 87 N N/A 30.01 1016 10 16 N/A
3:56 am 03:56 Mostly Cloudy with Light Rain 71 21.7 69 20.6 94 94 NNE 7 11 30.00 1016 10 16 0.00 0.00
4:56 am 04:56 Cloudy 69 20.6 68 20 96 96 N 8 13 30.03 1017 10 16 0.00 0.00
5:56 am 05:56 Cloudy 69 20.6 69 20.6 100 100 N 7 11 30.04 1017 10 16 N/A
6:56 am 06:56 Mostly Cloudy with Light Rain 68 20 68 20 100 100 N 6 9 30.05 1018 10 16 0.00 0.00
7:56 am 07:56 Mostly Sunny 69 20.6 69 20.6 100 100 ENE 5 7 30.05 1018 10 16 0.00 0.00
8:56 am 08:56 Mostly Cloudy 73 22.8 70 21.1 90 90 ENE 6 9 30.06 1018 10 16 N/A
9:56 am 09:56 Sunny 77 25 68 20 74 74 E 9 15 30.07 1018 10 16 N/A
10:56 am 10:56 Sunny 79 26.1 68 20 69 69 ENE 8 13 30.07 1018 10 16 N/A
11:56 am 11:56 Sunny 81 27.2 67 19.4 62 62 VRB 3 6 30.07 1018 10 16 N/A
12:56 pm 12:56 Mostly Sunny 83 28.3 70 21.1 65 65 SSW 5 7 30.06 1018 10 16 N/A
1:56 pm 13:56 Partly Cloudy 85 29.4 71 21.7 63 63 VRB 5 7 30.05 1018 10 16 N/A
2:56 pm 14:56 Mostly Cloudy 84 28.9 71 21.7 65 65 SSE 5 7 30.04 1017 10 16 N/A
3:56 pm 15:56 Mostly Cloudy 86 30 71 21.7 61 61 N N/A 30.02 1017 10 16 N/A
4:56 pm 16:56 Mostly Cloudy 86 30 71 21.7 61 61 WSW 6 9 30.01 1016 10 16 N/A
5:56 pm 17:56 Mostly Sunny 89 31.7 71 21.7 55 55 NNW 8 13 29.99 1016 10 16 N/A
6:56 pm 18:56 Sunny 79 26.1 69 20.6 72 72 NNW 13 20 30.00 1016 10 16 N/A
7:56 pm 19:56 Sunny 78 25.6 67 19.4 69 69 N 6 9 30.00 1016 10 16 N/A
8:56 pm 20:56 Sunny 77 25 66 18.9 69 69 N N/A 30.00 1016 10 16 N/A
9:56 pm 21:56 Clear 75 23.9 69 20.6 82 82 SE 5 7 30.02 1017 10 16 N/A
10:56 pm 22:56 Clear 73 22.8 70 21.1 90 90 SSE 5 7 30.02 1017 10 16 N/A
11:56 pm 23:56 Clear 72 22.2 71 21.7 97 97 SE 7 11 30.01 1016 10 16 N/A

Powered by AerisWeather